Location: Amon Carter Post Office
(32.8281°N, 97.0484°W)
Time: 03:41:01
(UTC+00:00)

deb Delta 89 - Visible Passes

Search period start: 03 December 2023 00:00
Search period end: 13 December 2023 00:00
Orbit: 680 x 978 km, 97.3° (Epoch: 02 December)

Date Brightness Start Highest point End Pass type
(mag) Time Alt. Az. Time Alt. Az. Time Alt. Az.
03 Dec ? 09:29:13 10° ESE 09:31:22 18° E 09:31:22 18° E visible
03 Dec ? 11:07:56 10° S 11:12:54 44° SW 11:12:54 44° SW visible
04 Dec ? 09:12:31 10° ESE 09:12:53 11° E 09:12:53 11° E visible
04 Dec ? 10:49:39 10° S 10:54:25 53° SSW 10:54:25 53° SSW visible
05 Dec ? 10:31:36 10° SSE 10:35:56 48° SSE 10:35:56 48° SSE visible
05 Dec ? 12:16:51 10° WSW 12:17:28 11° W 12:17:28 11° W visible
06 Dec ? 00:39:07 10° NW 00:40:54 12° WNW 00:42:39 10° W visible
06 Dec ? 10:13:44 10° SSE 10:17:26 37° SE 10:17:26 37° SE visible
06 Dec ? 11:56:31 10° SW 11:58:58 16° WSW 11:58:58 16° WSW visible
07 Dec ? 00:19:45 10° NNW 00:23:02 18° WNW 00:26:12 10° WSW visible
07 Dec ? 09:56:07 10° SE 09:58:57 26° SE 09:58:57 26° SE visible
07 Dec ? 11:37:17 10° SSW 11:40:29 22° WSW 11:40:29 22° WSW visible
08 Dec ? 00:01:00 10° NNW 00:05:06 27° WNW 00:09:01 10° SW visible
08 Dec ? 09:38:43 10° SE 09:40:27 18° ESE 09:40:27 18° ESE visible
08 Dec ? 11:18:30 10° SSW 11:21:59 28° SW 11:21:59 28° SW visible
08 Dec ? 23:42:32 10° N 23:47:06 41° WNW 23:51:28 10° SW visible
09 Dec ? 09:21:39 10° ESE 09:21:58 11° ESE 09:21:58 11° ESE visible
09 Dec ? 11:00:01 10° S 11:03:30 33° SSW 11:03:30 33° SSW visible
10 Dec ? 10:41:46 10° S 10:45:00 33° S 10:45:00 33° S visible
11 Dec ? 10:23:44 10° SSE 10:26:30 28° SSE 10:26:30 28° SSE visible
12 Dec ? 00:30:41 10° NW 00:32:41 13° WNW 00:34:40 10° W visible
12 Dec ? 10:05:55 10° SSE 10:08:00 22° SE 10:08:00 22° SE visible
12 Dec ? 11:48:18 10° SW 11:49:32 14° SW 11:49:32 14° SW visible
